Lehigh Valley International Airport Allentown US
ICAO: KABE
IATA: ABE
Category: Medium
Scheduled Services: Yes

Elevation: 393 ft
TransAlt. 18000 ft.

Airport Communications:
APP/DEP:118.2
ATIS:126.975
CLNC DEL:124.05
GND:121.9
WILLIAMSPORT RDO:117.5
TWR:120.5
UNICOM:122.95

KABE Zoom In..

If you have problems with the map follow the link
https://www.worldairports.se/pages/airport.php?
ICAO=KABE

Runways:

(A) RW 06 length 7599 ft width 150 ft
ILS 110.70 / hdg 63

(B) RW 13 length 5797 ft width 150 ft
ILS 111.90 / hdg 135

(C) RW 24 length 7599 ft width 150 ft
ILS 108.55 / hdg 243

(D) RW 31 length 5797 ft width 150 ft
---- / hdg 315

Location; KABE
Day. 24 / Time. 10.51 Zulu
* Altimeter: 30.22
* Temperature: 00° c. 32°f.
* Wind from: 220° Speed 08 kn.
Dewpoint: -10° c.
Visibility: 10 Statute Miles.
Clouds: Clear (automated report).

KABE 241051Z 22008KT 10SM CLR 00/M10 A3022 RMK AO2 SLP236 T00001100


Wind From 220°
Speed 08 kn.

 
 
jpsmedia.com for Web Design worldairports.se 2019   terms of use